Regional Weather Roundup
Issued by NWS

Home | Current Version | Previous Version | Text Only | Print | Product List | Glossary Off
Versions: 1 2 3 4 5 6 7 8 9 10 11 12 13 14 15 16 17 18 19 20 21 22 23 24 25 26 27 28 29 30 31 32 33 34 35 36 37 38 39 40 41 42 43 44 45 46 47 48 49 50

000
ASUS45 KTFX 251719
RWRMT
MONTANA HOURLY WEATHER ROUNDUP
NATIONAL WEATHER SERVICE GREAT FALLS MT
1019 AM MST TUE NOV 25 2014

NOTE: "FAIR" INDICATES FEW OR NO CLOUDS BELOW 12000 FEET WITH NO
SIGNIFICANT WEATHER AND/OR OBSTRUCTIONS TO VISIBILITY.

* THESE STATIONS ARE NOT UNDER NWS QUALITY CONTROL. THEY DO NOT
   REPORT WEATHER SUCH AS PRECIPITATION OR FOG.

MTZ001>007-043-251800-
WEST OF THE DIVIDE
CITY           SKY/WX    TMP DP  RH WIND       PRES   REMARKS
KALISPELL      FOG       32  32 100 CALM      30.05R
MISSOULA       FOG       34  34 100 CALM      30.07R VSB 2
BUTTE          LGT SNOW  34  32  92 N7        29.98R VSB 2    WCI  28
MULLAN PASS    SNOW      30  28  92 NW9       30.03R VSB M1/4 WCI  22
* ESSEX        N/A       33  31  92 SW1        N/A
* EUREKA APT   CLOUDY    34  30  85 CALM      30.06R
* HAMILTON APT CLOUDY    39  37  93 NW5       30.03R WCI  35
* LIBBY APT    CLOUDY    34  34 100 CALM      30.08S
* LINCOLN      N/A       33  32  96 SE3        N/A
* LOOKOUT PASS N/A       32  32 100 NE6        N/A   WCI  26
* POLSON       N/A       34  34 100 SW2G7      N/A
* RONAN APT    CLOUDY    36  34  92 N/A        N/A
* SEELEY LAKE  N/A       31  30  96 W1         N/A
* THOMP F APT  CLOUDY    24  20  85 NE3        N/A
* YAAK HILL    N/A       34  32  92 N/A        N/A
$$

MTZ008-052>055-251800-
SOUTHWEST MONTANA
CITY           SKY/WX    TMP DP  RH WIND       PRES   REMARKS
BOZEMAN        N/A       37  30  76 NE3       29.94R
DILLON         CLOUDY    43  28  56 SW12      29.99F
* W YELLOWSTON CLOUDY    24  22  92 SW6G14     N/A   WCI  17
* ENNIS APT    CLOUDY    34  30  85 S11        N/A   WCI  26
* THREE FORKS  CLOUDY    43  34  71 N/A        N/A
* BOULDER HILL N/A       34  30  85 VRB2       N/A
* MONIDA PASS  N/A       22  20  92 SE16       N/A   WCI   8
* RAYNOLDS PAS N/A       23   8  52 S14        N/A   WCI  10
* WHITEHALL    N/A       41  32  70 W10G19     N/A
* WISE RIVER   N/A       34  31  89 NW10G18    N/A   WCI  26
$$

MTZ009>010-012-014-046-048-049-054-251800-
EAST SLOPES AND CENTRAL MONTANA
CITY           SKY/WX    TMP DP  RH WIND       PRES   REMARKS
CUT BANK       CLOUDY    36  21  54 N13       29.94R WCI  27
GREAT FALLS    CLOUDY    39  27  62 VRB6      29.91R WCI  35
HELENA         CLOUDY    36  34  92 W5        29.95R WCI  32
MALMSTROM AFB  CLOUDY    36  32  85 NE22G36   29.96R WCI  25
* CONRAD       CLOUDY    41  28  60 W8         N/A
* DEARBORN     N/A       38  35  89 SW1        N/A
* EAST GLACIER N/A       34  23  64 W2         N/A
* MONARCH      N/A       30  27  89 W14G22     N/A   WCI  19
* PENDROY      N/A       40  22  49 NW12G19    N/A   WCI  33
* ROGERS PASS  N/A       31  29  92 SE2        N/A
* SAINT MARY   N/A       36  25  64 NW7G16     N/A   WCI  30
* SWEET GRASS  N/A       33  21  61 N19G26     N/A   WCI  22
* WHITE SULPH  N/A       33  32  96 NW9G16     N/A   WCI  25
$$

MTZ011-013-016-021-035-040-045-047-050-051-251800-
NORTH CENTRAL MONTANA
CITY           SKY/WX    TMP DP  RH WIND       PRES   REMARKS
HAVRE          CLOUDY    37  28  70 W17       29.89R WCI  27
LEWISTOWN      LGT SNOW  34  30  85 W9        29.88R VSB 1 1/4 WCI  27
* N BAR RANCH  FOG       32  30  92 NW16G23   29.86R VSB 3    WCI  21
* CHINOOK      CLOUDY    37  30  76 W15       29.86R WCI  28
* FORT BENTON  CLOUDY    37  30  76 NW13G18   29.95R WCI  29
* MALTA APT    CLOUDY    37  30  76 W14        N/A   WCI  28
* CHESTER      N/A       36  24  62 N14G25     N/A   WCI  27
* DENTON       N/A       36  30  79 W23G29     N/A   WCI  24
* GEYSER       N/A       33  33 100 W22        N/A   WCI  21
* JUDITH GAP   N/A       31  31 100 N24G34     N/A   WCI  18
* LOMA         N/A       35  33  92 NW8        N/A   WCI  28
$$

MTZ017>020-022>027-061-062-251800-
NORTHEAST MONTANA
CITY           SKY/WX    TMP DP  RH WIND       PRES   REMARKS
GLASGOW        PTSUNNY   37  30  76 NW17G28   29.74R WCI  27
GLENDIVE       CLOUDY    36  30  79 W18G24    29.73R WCI  26
JORDAN         CLOUDY    37  34  89 W14       29.79R WCI  28
SIDNEY         PTSUNNY   36  32  85 W14       29.71S WCI  27
WOLF POINT     CLOUDY    36  34  92 W10       29.71R WCI  29
* BEAVER HILL  N/A       32  31  96 W16        N/A   WCI  21
* CIRCLE       N/A       36  34  92 W5G12      N/A   WCI  32
* LINDSAY DVD  N/A       33  32  96 W22G29     N/A   WCI  21
* NAVAJO       N/A       32  29  89 W20G25     N/A   WCI  20
* PLENTYWOOD A PTSUNNY   28  28 100 CALM      29.66R
* POPLAR APT   CLOUDY    36  34  92 N/A       29.70R
* SACO         N/A       37  32  82 W13        N/A   WCI  29
* SCOBEY APT   PTSUNNY   34  25  70 W11G17     N/A   WCI  26
$$

MTZ028>042-056>058-251800-
SOUTHCENTRAL AND SOUTHEAST MONTANA
CITY           SKY/WX    TMP DP  RH WIND       PRES   REMARKS
BAKER          LGT SNOW  34  30  85 W20       29.72S VSB 3/4  WCI  23
BILLINGS       LGT RAIN  39  34  82 NW17      29.87R WCI  30
LIVINGSTON     LGT RAIN  37 N/A N/A W23G35    29.88R WCI  26
MILES CITY     CLOUDY    36  34  92 W12       29.77S WCI  28
* BIG TIMBER A CLOUDY    37  34  89 W20G26    29.87R WCI  27
* FORSYTH APT  CLOUDY    36  34  92 W13       29.82R WCI  27
* LAUREL APT   CLOUDY    43  34  71 W13G25     N/A
* ALZADA       N/A       30  29  96 N/A        N/A
* HYSHAM       N/A       36  31  82 W11G17     N/A   WCI  28
* LAME DEER    N/A       31  31 100 W12        N/A   WCI  22
* REED POINT   N/A       41  36  82 W23G31     N/A
* ROSCOE HILL  N/A       42  20  41 SW6G17     N/A
$$

REGIONAL REPORTS...DAKOTAS
CITY           SKY/WX    TMP DP  RH WIND       PRES   REMARKS
WILLISTON      FOG       30  28  92 S8        29.69S WCI  22
DICKINSON      LGT SNOW  32  30  92 S10       29.68F VSB 1    WCI  24
BEACH          LGT SNOW  32  32 100 W17       29.70S VSB 1 1/2 WCI  21
CROSBY         LGT SNOW  28  28 100 SE5       29.68F VSB 1    WCI  22
TIOGA          FOG       28  28 100 S10       29.70S VSB 2    WCI  19
BISMARCK       LGT SNOW  28  25  89 SE12      29.81F VSB 1 1/2 WCI  18
GRAND FORKS    CLOUDY    19  12  74 SE5       29.97R WCI  12
FARGO          CLOUDY    23  16  74 SE6       29.97R WCI  16
BUFFALO SD     CLOUDY    30  28  92 SW10      29.67F WCI  21
RAPID CITY     CLOUDY    30  25  82 CALM      29.79S
$$

REGIONAL REPORTS...WYOMING/IDAHO/WASHINGTON
CITY           SKY/WX    TMP DP  RH WIND       PRES   REMARKS
GILLETTE       LGT SNOW  32  28  85 W12       29.81S WCI  23
SHERIDAN       CLOUDY    34  32  92 S3        29.83S
CODY           CLOUDY    37  25  62 W14G26    29.86R WCI  28
YELLOWSTONE LA CLOUDY    23  19  85 W10G21    30.00S WCI  13
SALMON         PTSUNNY   32  30  92 CALM      30.10S VSB 2 1/2
MULLAN PASS    SNOW      30  28  92 NW9       30.03S VSB M1/4 WCI  22
SAND POINT     CLOUDY    34  34 100 CALM      30.13R
SPOKANE        FOG       37  37 100 N6        30.15R VSB 3    WCI  32
$$

REGIONAL REPORTS...ALBERTA
CITY           SKY/WX    TMP DP  RH WIND       PRES   REMARKS
CALGARY        PTSUNNY   30  21  69 N9        29.95R WCI  22
LETHBRIDGE     CLOUDY    36  23  59 NW18G28   29.96R WCI  26
MEDICINE HAT   PTSUNNY   36  27  70 NW20G25   29.89R WCI  25
EDMONTON       CLOUDY    19  16  88 N7        30.02R WCI  10
WATERTON GATE  N/A       39  16  39 W7         N/A   WCI  34
CARDSTON       N/A       32  23  69 N5         N/A   WCI  27
MILK RIVER     N/A       34  25  70 N16        N/A   WCI  24
$$

REGIONAL REPORTS...SASKATCHEWAN
CITY           SKY/WX    TMP DP  RH WIND       PRES   REMARKS
SWIFT CURRENT  LGT SNOW  21  19  92 NW12      29.76R VSB 2 1/4 WCI   9
MOOSE JAW      LGT SNOW N/A N/A N/A NE14       N/A
REGINA         LGT SNOW  21  18  88 NE18      29.78R VSB 2    WCI   6
VAL MARIE      N/A       36  28  73 NW21G29    N/A   WCI  25
ASSINIBOIA     N/A       27  25  92 N12        N/A   WCI  16
CORONACH       N/A       34  28  79 NW16G22    N/A   WCI  24

$$




USA.gov is the U.S. government's official web portal to all federal, state and local government web resources and services.